Regional Weather Roundup
Issued by NWS

Home | Current Version | Previous Version | Graphics & Text | Print | Product List | Glossary On
Versions: 1 2 3 4 5 6 7 8 9 10 11 12 13 14 15 16 17 18 19 20 21 22 23 24 25 26 27 28 29 30 31 32 33 34 35 36 37 38 39 40 41 42 43 44 45 46 47 48 49 50
000
ASUS43 KFSD 051410
RWRSD

WEATHER ROUNDUP FOR SOUTH DAKOTA
NATIONAL WEATHER SERVICE SIOUX FALLS SD
800 AM CST MON DEC 05 2016

NOTE: "FAIR" INDICATES FEW OR NO CLOUDS BELOW 12,000 FEET WITH NO
SIGNIFICANT WEATHER AND/OR OBSTRUCTIONS TO VISIBILITY.


SDZ001>005-009-010-012>017-051500-
NORTHWEST AND NORTH CENTRAL SOUTH DAKOTA

CITY           SKY/WX    TMP DP  RH WIND       PRES   REMARKS
BUFFALO          N/A     30  26  85 NW30G43   29.49R WCI  15
FAITH            N/A     31  31 100 N16       29.51R WCI  20
MOBRIDGE       CLOUDY    29  24  82 NW13      29.50R WCI  19
$$

SDZ012>016-024>037-041>051-057-063-072>074-051500-
SOUTHWEST AND SOUTH CENTRAL SOUTH DAKOTA

CITY           SKY/WX    TMP DP  RH WIND       PRES   REMARKS
RAPID CTY ARPT CLEAR     32  27  81 NW28G37   29.50R WCI  18
PIERRE         CLOUDY    22  20  92 NE6       29.46F WCI  14
CUSTER         PTCLDY    27  20  75 N7        29.47R WCI  19
ELLSWORTH AFB  PTCLDY    32  30  92 NW30G37   29.50R WCI  18
PHILIP         MOCLDY    24  21  88 W6        29.51R WCI  17
PINE RIDGE     CLEAR     31  25  78 CALM      29.50R
SPEARFISH      LGT SNOW  28  28 100 NW14G22   29.58R WCI  17
WINNER         FAIR      42  24  49 SW15      29.46F
$$

SDZ004>011-016>023-039-040-051500-
NORTHEAST SOUTH DAKOTA

CITY           SKY/WX    TMP DP  RH WIND       PRES   REMARKS
ABERDEEN       PTCLDY    26  22  84 E6        29.54F WCI  19
WATERTOWN      PTCLDY    31  26  82 SE10      29.56F WCI  22
BROOKINGS      CLOUDY    32  29  88 SE13      29.56F WCI  22
SISSETON         N/A     22  20  92 S6        29.61F WCI  14
$$

SDZ017-020-022-023-036>040-048>070-051500-
SOUTHEAST SOUTH DAKOTA

CITY           SKY/WX    TMP DP  RH WIND       PRES   REMARKS
SIOUX FALLS    CLOUDY    37  30  75 S15       29.58F
HURON          CLOUDY    30  27  88 SE8       29.53S WCI  22
CHAMBERLAIN    CLOUDY    32  27  83 SE6       29.49R WCI  26
MITCHELL       PTCLDY    33  28  81 SE9       29.54F WCI  25
YANKTON        CLOUDY    37  27  65 S8        29.59S
$$

ABBREVIATIONS USED IN REMARKS
   TC - TEMPERATURE IN CELSIUS
  WCI - WIND CHILL INDEX
   HX - HEAT INDEX
  VSB - VISIBILITY




USA.gov is the U.S. government's official web portal to all federal, state and local government web resources and services.